Terminal Aerodrome Forecast
Issued by NWS Greer, SC

Home | Current Version | Previous Version | Text Only | Print | Product List | Glossary On
Versions: 1 2 3 4 5 6 7 8 9 10 11 12 13 14 15
000
FTUS42 KGSP 210900 AAA
TAFGSP
TAF AMD
KGSP 210916Z 2109/2206 00000KT 3SM BR FEW250
      TEMPO 2110/2113 1SM BR
     FM211300 00000KT P6SM FEW250
     FM211800 30006KT P6SM FEW250
     FM220000 36009KT P6SM FEW150=

USA.gov is the U.S. government's official web portal to all federal, state and local government web resources and services.